| time (UTC) | temp F | wind direction | speed MPH | gust MPH | rain 1hr in | rain 24hr in | rain mn in | humidity % | barometer mb |
| 20260506202507 | 86 | 265 | 0.0 | 1.0 | 0.00 | 0.04 | 0.04 | 82 | 1009.2 |
| 20260506202009 | 85 | 243 | 0.0 | 1.0 | 0.00 | 0.04 | 0.04 | 82 | 1009.2 |
| 20260506201522 | 84 | 205 | 0.0 | 0.0 | 0.00 | 0.04 | 0.04 | 82 | 1009.4 |
| 20260506201007 | 83 | 200 | 0.0 | 0.0 | 0.00 | 0.04 | 0.04 | 86 | 1009.4 |
| 20260506200515 | 82 | 200 | 0.0 | 0.0 | 0.00 | 0.04 | 0.04 | 87 | 1009.4 |
| 20260506200021 | 82 | 166 | 0.0 | 0.0 | 0.00 | 0.04 | 0.04 | 89 | 1009.6 |
| 20260506195507 | 81 | 167 | 0.0 | 0.0 | 0.00 | 0.04 | 0.04 | 90 | 1009.7 |
| 20260506195010 | 81 | 166 | 0.0 | 0.0 | 0.00 | 0.04 | 0.04 | 89 | 1009.8 |
| 20260506194520 | 80 | 166 | 0.0 | 0.0 | 0.00 | 0.04 | 0.04 | 90 | 1009.8 |
| 20260506194004 | 80 | 166 | 0.0 | 0.0 | 0.03 | 0.04 | 0.04 | 90 | 1009.8 |
| 20260506193506 | 80 | 166 | 0.0 | 0.0 | 0.04 | 0.04 | 0.04 | 89 | 1009.9 |
| 20260506193018 | 80 | 166 | 0.0 | 0.0 | 0.04 | 0.04 | 0.04 | 90 | 1009.9 |
| 20260506192508 | 80 | 166 | 0.0 | 0.0 | 0.04 | 0.04 | 0.04 | 90 | 1009.8 |
| 20260506192011 | 80 | 165 | 0.0 | 0.0 | 0.04 | 0.04 | 0.04 | 91 | 1009.8 |
| 20260506191516 | 79 | 165 | 0.0 | 0.0 | 0.04 | 0.04 | 0.04 | 92 | 1009.8 |
| 20260506191009 | 79 | 165 | 0.0 | 0.0 | 0.04 | 0.04 | 0.04 | 91 | 1009.9 |
| 20260506190506 | 79 | 165 | 0.0 | 0.0 | 0.04 | 0.04 | 0.04 | 91 | 1010.0 |
| 20260506190011 | 79 | 165 | 0.0 | 0.0 | 0.04 | 0.04 | 0.04 | 92 | 1010.0 |
| 20260506185508 | 78 | 165 | 0.0 | 0.0 | 0.04 | 0.04 | 0.04 | 91 | 1010.1 |
| 20260506185007 | 79 | 165 | 0.0 | 0.0 | 0.04 | 0.04 | 0.04 | 89 | 1010.2 |
| 20260506184531 | 79 | 165 | 0.0 | 0.0 | 0.04 | 0.04 | 0.04 | 89 | 1010.2 |
| 20260506184007 | 79 | 164 | 0.0 | 0.0 | 0.01 | 0.01 | 0.01 | 87 | 1010.2 |
| 20260506183504 | 80 | 164 | 0.0 | 0.0 | 0.00 | 0.00 | 0.00 | 86 | 1010.3 |
| 20260506183028 | 80 | 164 | 0.0 | 0.0 | 0.00 | 0.00 | 0.00 | 85 | 1010.4 |
| 20260506182507 | 80 | 164 | 0.0 | 0.0 | 0.00 | 0.00 | 0.00 | 85 | 1010.4 |
| 20260506182006 | 80 | 164 | 0.0 | 0.0 | 0.00 | 0.00 | 0.00 | 85 | 1010.4 |
| 20260506181527 | 81 | 164 | 0.0 | 0.0 | 0.00 | 0.00 | 0.00 | 84 | 1010.5 |
| 20260506181004 | 81 | 164 | 0.0 | 0.0 | 0.00 | 0.00 | 0.00 | 85 | 1010.6 |
| 20260506180509 | 81 | 164 | 0.0 | 0.0 | 0.00 | 0.00 | 0.00 | 84 | 1010.8 |
| 20260506180026 | 81 | 217 | 0.0 | 0.0 | 0.00 | 0.00 | 0.00 | 84 | 1010.9 |
| 20260506175506 | 81 | 217 | 0.0 | 0.0 | 0.00 | 0.00 | 0.00 | 84 | 1011.1 |
| 20260506175012 | 80 | 217 | 0.0 | 0.0 | 0.00 | 0.00 | 0.00 | 85 | 1011.1 |
| 20260506174522 | 80 | 217 | 0.0 | 0.0 | 0.00 | 0.00 | 0.00 | 85 | 1011.3 |
| 20260506174011 | 81 | 217 | 0.0 | 0.0 | 0.00 | 0.00 | 0.00 | 84 | 1011.4 |
| 20260506173508 | 81 | 217 | 0.0 | 0.0 | 0.00 | 0.00 | 0.00 | 85 | 1011.5 |
| 20260506173020 | 80 | 217 | 0.0 | 0.0 | 0.00 | 0.00 | 0.00 | 85 | 1011.5 |
| 20260506172509 | 80 | 217 | 0.0 | 0.0 | 0.00 | 0.00 | 0.00 | 87 | 1011.6 |
| 20260506172009 | 80 | 216 | 0.0 | 0.0 | 0.00 | 0.00 | 0.00 | 86 | 1011.6 |
| 20260506171523 | 80 | 216 | 0.0 | 0.0 | 0.00 | 0.00 | 0.00 | 87 | 1011.6 |
| 20260506171009 | 80 | 216 | 0.0 | 0.0 | 0.00 | 0.00 | 0.00 | 88 | 1011.5 |
| 20260506170511 | 80 | 217 | 0.0 | 0.0 | 0.00 | 0.00 | 0.00 | 86 | 1011.7 |
| 20260506170037 | 80 | 217 | 0.0 | 0.0 | 0.00 | 0.00 | 0.00 | 86 | 1011.7 |
| 20260506165508 | 80 | 216 | 0.0 | 0.0 | 0.00 | 0.00 | 0.00 | 87 | 1011.7 |
| 20260506165006 | 80 | 217 | 0.0 | 0.0 | 0.00 | 0.00 | 0.00 | 87 | 1011.7 |
| 20260506164532 | 80 | 216 | 0.0 | 0.0 | 0.00 | 0.00 | 0.00 | 87 | 1011.6 |
| 20260506164009 | 80 | 216 | 0.0 | 0.0 | 0.00 | 0.00 | 0.00 | 86 | 1011.6 |
| 20260506163512 | 80 | 216 | 0.0 | 0.0 | 0.00 | 0.00 | 0.00 | 84 | 1011.5 |
| 20260506163029 | 80 | 213 | 0.0 | 1.0 | 0.00 | 0.00 | 0.00 | 85 | 1011.4 |
| 20260506162509 | 80 | 213 | 0.0 | 1.0 | 0.00 | 0.00 | 0.00 | 85 | 1011.3 |
| 20260506162013 | 80 | 217 | 0.0 | 1.0 | 0.00 | 0.00 | 0.00 | 85 | 1011.4 |
| 20260506161525 | 80 | 212 | 0.0 | 0.0 | 0.00 | 0.00 | 0.00 | 85 | 1011.2 |
| 20260506161005 | 80 | 212 | 0.0 | 0.0 | 0.00 | 0.00 | 0.00 | 85 | 1011.1 |
| 20260506160509 | 80 | 212 | 0.0 | 0.0 | 0.00 | 0.00 | 0.00 | 85 | 1011.2 |
| 20260506160026 | 80 | 214 | 0.0 | 1.0 | 0.00 | 0.00 | 0.00 | 85 | 1011.2 |
| 20260506155505 | 80 | 214 | 0.0 | 1.0 | 0.00 | 0.00 | 0.00 | 86 | 1011.0 |
| 20260506155011 | 80 | 351 | 0.0 | 1.0 | 0.00 | 0.00 | 0.00 | 87 | 1010.9 |
| 20260506154525 | 79 | 352 | 0.0 | 1.0 | 0.00 | 0.00 | 0.00 | 87 | 1011.0 |
| 20260506154014 | 79 | 341 | 0.0 | 1.0 | 0.00 | 0.00 | 0.00 | 86 | 1010.9 |
| 20260506153514 | 79 | 240 | 0.0 | 0.0 | 0.00 | 0.00 | 0.00 | 87 | 1011.0 |
| 20260506153020 | 79 | 221 | 0.0 | 0.0 | 0.00 | 0.00 | 0.00 | 86 | 1010.9 |
| 20260506152509 | 79 | 221 | 0.0 | 1.0 | 0.00 | 0.00 | 0.00 | 87 | 1010.9 |
| 20260506152011 | 79 | 221 | 0.0 | 1.0 | 0.00 | 0.00 | 0.00 | 87 | 1010.9 |
| 20260506151529 | 79 | 222 | 0.0 | 1.0 | 0.00 | 0.00 | 0.00 | 87 | 1011.0 |
| 20260506151004 | 79 | 223 | 0.0 | 0.0 | 0.00 | 0.00 | 0.00 | 87 | 1011.1 |
| 20260506150507 | 79 | 153 | 0.0 | 0.0 | 0.00 | 0.00 | 0.00 | 87 | 1010.9 |
| 20260506150012 | 78 | 152 | 0.0 | 0.0 | 0.00 | 0.00 | 0.00 | 88 | 1010.8 |
| 20260506145505 | 78 | 153 | 0.0 | 0.0 | 0.00 | 0.00 | 0.00 | 88 | 1010.6 |
| 20260506145010 | 78 | 153 | 0.0 | 0.0 | 0.00 | 0.00 | 0.00 | 88 | 1010.7 |
| 20260506144512 | 78 | 153 | 0.0 | 0.0 | 0.00 | 0.00 | 0.00 | 88 | 1010.6 |
| 20260506144002 | 78 | 210 | 0.0 | 0.0 | 0.00 | 0.00 | 0.00 | 89 | 1010.5 |
| 20260506143505 | 78 | 210 | 0.0 | 0.0 | 0.00 | 0.00 | 0.00 | 89 | 1010.5 |
| 20260506143009 | 78 | 210 | 0.0 | 0.0 | 0.00 | 0.00 | 0.00 | 89 | 1010.4 |
| 20260506142510 | 77 | 199 | 0.0 | 0.0 | 0.00 | 0.00 | 0.00 | 90 | 1010.2 |
| 20260506142006 | 77 | 199 | 0.0 | 0.0 | 0.00 | 0.00 | 0.00 | 90 | 1010.2 |
| 20260506141506 | 77 | 166 | 0.0 | 0.0 | 0.00 | 0.00 | 0.00 | 91 | 1010.2 |
| 20260506141006 | 77 | 166 | 0.0 | 0.0 | 0.00 | 0.00 | 0.00 | 92 | 1010.3 |
| 20260506140503 | 76 | 166 | 0.0 | 0.0 | 0.00 | 0.00 | 0.00 | 91 | 1010.3 |
| 20260506140004 | 76 | 166 | 0.0 | 0.0 | 0.00 | 0.00 | 0.00 | 92 | 1010.4 |
| 20260506135506 | 76 | 166 | 0.0 | 0.0 | 0.00 | 0.00 | 0.00 | 92 | 1010.3 |
| 20260506135002 | 76 | 180 | 0.0 | 0.0 | 0.00 | 0.00 | 0.00 | 92 | 1010.4 |
| 20260506134523 | 76 | 181 | 0.0 | 0.0 | 0.00 | 0.00 | 0.00 | 93 | 1010.6 |
| 20260506134005 | 76 | 181 | 0.0 | 0.0 | 0.00 | 0.00 | 0.00 | 93 | 1010.6 |
| 20260506133503 | 75 | 181 | 0.0 | 0.0 | 0.00 | 0.00 | 0.00 | 93 | 1010.6 |
| 20260506133039 | 75 | 181 | 0.0 | 0.0 | 0.00 | 0.00 | 0.00 | 93 | 1010.5 |
| 20260506132508 | 75 | 181 | 0.0 | 0.0 | 0.00 | 0.00 | 0.00 | 93 | 1010.7 |
| 20260506132007 | 75 | 181 | 0.0 | 0.0 | 0.00 | 0.00 | 0.00 | 93 | 1010.6 |
| 20260506131523 | 75 | 181 | 0.0 | 0.0 | 0.00 | 0.00 | 0.00 | 93 | 1010.6 |
| 20260506131003 | 75 | 181 | 0.0 | 0.0 | 0.00 | 0.00 | 0.00 | 94 | 1010.6 |
| 20260506130507 | 75 | 181 | 0.0 | 0.0 | 0.00 | 0.00 | 0.00 | 94 | 1010.6 |
| 20260506130016 | 75 | 181 | 0.0 | 0.0 | 0.00 | 0.00 | 0.00 | 94 | 1010.6 |
| 20260506125503 | 74 | 181 | 0.0 | 0.0 | 0.00 | 0.00 | 0.00 | 94 | 1010.5 |
| 20260506125007 | 74 | 181 | 0.0 | 0.0 | 0.00 | 0.00 | 0.00 | 94 | 1010.4 |
| 20260506124513 | 74 | 181 | 0.0 | 0.0 | 0.00 | 0.00 | 0.00 | 94 | 1010.4 |
| 20260506124009 | 74 | 181 | 0.0 | 0.0 | 0.00 | 0.00 | 0.00 | 94 | 1010.3 |
| 20260506123507 | 74 | 181 | 0.0 | 0.0 | 0.00 | 0.00 | 0.00 | 94 | 1010.2 |
| 20260506123012 | 74 | 181 | 0.0 | 0.0 | 0.00 | 0.00 | 0.00 | 94 | 1010.2 |
| 20260506122509 | 74 | 181 | 0.0 | 0.0 | 0.00 | 0.00 | 0.00 | 94 | 1010.2 |
| 20260506122006 | 74 | 181 | 0.0 | 0.0 | 0.00 | 0.00 | 0.00 | 94 | 1010.2 |
| 20260506121510 | 74 | 181 | 0.0 | 0.0 | 0.00 | 0.00 | 0.00 | 94 | 1010.2 |
| 20260506121006 | 74 | 181 | 0.0 | 0.0 | 0.00 | 0.00 | 0.00 | 94 | 1010.1 |
| 20260506120503 | 74 | 181 | 0.0 | 0.0 | 0.00 | 0.00 | 0.00 | 94 | 1010.0 |
| 20260506120035 | 74 | 181 | 0.0 | 0.0 | 0.00 | 0.00 | 0.00 | 94 | 1009.9 |
| 20260506115512 | 74 | 181 | 0.0 | 0.0 | 0.00 | 0.00 | 0.00 | 94 | 1010.0 |
| 20260506115004 | 74 | 181 | 0.0 | 0.0 | 0.00 | 0.00 | 0.00 | 94 | 1010.0 |
| 20260506114523 | 74 | 181 | 0.0 | 0.0 | 0.00 | 0.00 | 0.00 | 94 | 1009.8 |
| 20260506114008 | 73 | 181 | 0.0 | 0.0 | 0.00 | 0.00 | 0.00 | 94 | 1009.6 |
| 20260506113504 | 73 | 181 | 0.0 | 0.0 | 0.00 | 0.00 | 0.00 | 94 | 1009.8 |
| 20260506113023 | 73 | 181 | 0.0 | 0.0 | 0.00 | 0.00 | 0.00 | 93 | 1009.9 |
| 20260506112503 | 73 | 181 | 0.0 | 0.0 | 0.00 | 0.00 | 0.00 | 93 | 1009.8 |
| 20260506112010 | 73 | 181 | 0.0 | 0.0 | 0.00 | 0.00 | 0.00 | 93 | 1009.7 |
| 20260506111519 | 73 | 181 | 0.0 | 0.0 | 0.00 | 0.00 | 0.00 | 93 | 1009.7 |
| 20260506111006 | 73 | 181 | 0.0 | 0.0 | 0.00 | 0.00 | 0.00 | 93 | 1009.6 |
| 20260506110509 | 73 | 181 | 0.0 | 0.0 | 0.00 | 0.00 | 0.00 | 93 | 1009.5 |
| 20260506110019 | 74 | 181 | 0.0 | 0.0 | 0.00 | 0.00 | 0.00 | 93 | 1009.4 |
| 20260506105506 | 74 | 181 | 0.0 | 2.0 | 0.00 | 0.00 | 0.00 | 92 | 1009.2 |
| 20260506105008 | 74 | 181 | 0.0 | 2.0 | 0.00 | 0.00 | 0.00 | 92 | 1009.0 |
| 20260506104512 | 74 | 313 | 0.0 | 1.0 | 0.00 | 0.00 | 0.00 | 92 | 1009.0 |
| 20260506104008 | 74 | 69 | 0.0 | 1.0 | 0.00 | 0.00 | 0.00 | 92 | 1008.9 |
| 20260506103507 | 74 | 92 | 0.0 | 1.0 | 0.00 | 0.00 | 0.00 | 92 | 1008.8 |
| 20260506103010 | 74 | 288 | 0.0 | 1.0 | 0.00 | 0.00 | 0.00 | 92 | 1008.8 |
| 20260506102509 | 74 | 114 | 0.0 | 1.0 | 0.00 | 0.00 | 0.00 | 92 | 1008.8 |
| 20260506102009 | 74 | 91 | 0.0 | 4.0 | 0.00 | 0.00 | 0.00 | 92 | 1008.9 |
| 20260506101538 | 74 | 197 | 0.0 | 4.0 | 0.00 | 0.00 | 0.00 | 92 | 1008.8 |
| 20260506101010 | 75 | 70 | 0.0 | 2.0 | 0.00 | 0.00 | 0.00 | 92 | 1008.9 |
| 20260506100503 | 75 | 79 | 0.0 | 3.0 | 0.00 | 0.00 | 0.00 | 92 | 1008.8 |
| 20260506100031 | 75 | 110 | 0.0 | 3.0 | 0.00 | 0.00 | 0.00 | 92 | 1008.9 |
| 20260506095505 | 75 | 180 | 0.0 | 3.0 | 0.00 | 0.00 | 0.00 | 92 | 1008.9 |
| 20260506095004 | 75 | 75 | 0.0 | 4.0 | 0.00 | 0.00 | 0.00 | 92 | 1008.7 |
| 20260506094525 | 75 | 82 | 0.0 | 4.0 | 0.00 | 0.00 | 0.00 | 92 | 1008.6 |
| 20260506094006 | 75 | 131 | 0.0 | 1.0 | 0.00 | 0.00 | 0.00 | 92 | 1008.4 |
| 20260506093512 | 75 | 117 | 0.0 | 2.0 | 0.00 | 0.00 | 0.00 | 92 | 1008.5 |
| 20260506093024 | 75 | 117 | 0.0 | 3.0 | 0.00 | 0.00 | 0.00 | 92 | 1008.4 |
| 20260506092507 | 75 | 151 | 0.0 | 3.0 | 0.00 | 0.00 | 0.00 | 92 | 1008.4 |
| 20260506092010 | 75 | 124 | 0.0 | 4.0 | 0.00 | 0.00 | 0.00 | 92 | 1008.4 |
| 20260506091522 | 75 | 222 | 0.0 | 4.0 | 0.00 | 0.00 | 0.00 | 92 | 1008.4 |
| 20260506091007 | 75 | 105 | 0.0 | 4.0 | 0.00 | 0.00 | 0.00 | 92 | 1008.5 |
| 20260506090509 | 75 | 235 | 0.0 | 4.0 | 0.00 | 0.00 | 0.00 | 92 | 1008.5 |
| 20260506090019 | 75 | 91 | 0.0 | 5.0 | 0.00 | 0.00 | 0.00 | 91 | 1008.4 |
| 20260506085509 | 75 | 81 | 0.0 | 5.0 | 0.00 | 0.00 | 0.00 | 91 | 1008.4 |
| 20260506085006 | 75 | 113 | 0.0 | 2.0 | 0.00 | 0.00 | 0.00 | 91 | 1008.5 |
| 20260506084523 | 75 | 92 | 0.0 | 3.0 | 0.00 | 0.00 | 0.00 | 91 | 1008.4 |
| 20260506084008 | 75 | 116 | 0.0 | 5.0 | 0.00 | 0.00 | 0.00 | 91 | 1008.3 |
| 20260506083507 | 75 | 115 | 0.0 | 5.0 | 0.00 | 0.00 | 0.00 | 91 | 1008.5 |
| 20260506083029 | 75 | 108 | 1.0 | 5.0 | 0.00 | 0.00 | 0.00 | 91 | 1008.5 |
| 20260506082506 | 75 | 262 | 0.0 | 4.0 | 0.00 | 0.00 | 0.00 | 91 | 1008.6 |
| 20260506082009 | 75 | 216 | 0.0 | 4.0 | 0.00 | 0.00 | 0.00 | 91 | 1008.6 |
| 20260506081528 | 75 | 109 | 0.0 | 2.0 | 0.00 | 0.00 | 0.00 | 91 | 1008.6 |
| 20260506081015 | 75 | 111 | 0.0 | 2.0 | 0.00 | 0.00 | 0.00 | 91 | 1008.6 |
| 20260506080504 | 75 | 246 | 0.0 | 1.0 | 0.00 | 0.00 | 0.00 | 91 | 1008.7 |
| 20260506073509 | 76 | 113 | 0.0 | 2.0 | 0.00 | 0.00 | 0.00 | 91 | 1009.1 |
| 20260506073025 | 76 | 212 | 0.0 | 3.0 | 0.00 | 0.00 | 0.00 | 91 | 1009.2 |
| 20260506072504 | 76 | 96 | 0.0 | 3.0 | 0.00 | 0.00 | 0.00 | 91 | 1009.3 |
| 20260506072015 | 76 | 215 | 0.0 | 2.0 | 0.00 | 0.00 | 0.00 | 91 | 1009.4 |
| 20260506071522 | 76 | 117 | 0.0 | 2.0 | 0.00 | 0.00 | 0.00 | 91 | 1009.5 |
| 20260506071012 | 76 | 121 | 0.0 | 2.0 | 0.00 | 0.00 | 0.00 | 91 | 1009.6 |
| 20260506070510 | 76 | 212 | 0.0 | 1.0 | 0.00 | 0.00 | 0.00 | 90 | 1009.5 |
| 20260506062512 | 76 | 83 | 0.0 | 1.0 | 0.00 | 0.00 | 0.00 | 90 | 1009.7 |
| 20260506062008 | 76 | 241 | 0.0 | 2.0 | 0.00 | 0.00 | 0.00 | 90 | 1009.7 |
| 20260506061510 | 76 | 266 | 0.0 | 2.0 | 0.00 | 0.00 | 0.00 | 90 | 1009.7 |
| 20260506061004 | 76 | 207 | 0.0 | 5.0 | 0.00 | 0.00 | 0.00 | 90 | 1009.7 |
| 20260506060501 | 76 | 126 | 0.0 | 5.0 | 0.00 | 0.00 | 0.00 | 90 | 1009.8 |
| 20260506051003 | 76 | 111 | 0.0 | 6.0 | 0.00 | 0.00 | 0.00 | 88 | 1009.4 |
| 20260506050503 | 76 | 94 | 0.0 | 6.0 | 0.00 | 0.00 | 0.00 | 88 | 1009.4 |
| 20260506045004 | 77 | 111 | 0.0 | 3.0 | 0.00 | 0.00 | 0.00 | 88 | 1009.5 |
| 20260506044519 | 77 | 207 | 0.0 | 3.0 | 0.00 | 0.00 | 0.00 | 88 | 1009.5 |
| 20260506044005 | 77 | 248 | 0.0 | 4.0 | 0.00 | 0.00 | 0.00 | 88 | 1009.4 |
| 20260506043506 | 77 | 199 | 0.0 | 4.0 | 0.00 | 0.00 | 0.00 | 88 | 1009.5 |
| 20260506043014 | 77 | 217 | 0.0 | 4.0 | 0.00 | 0.00 | 0.00 | 87 | 1009.3 |
| 20260506042502 | 77 | 108 | 1.0 | 3.0 | 0.00 | 0.00 | 0.00 | 87 | 1009.4 |
| 20260506042003 | 77 | 309 | 0.0 | 3.0 | 0.00 | 0.00 | 0.00 | 87 | 1009.4 |
| 20260506041514 | 77 | 144 | 0.0 | 3.0 | 0.00 | 0.00 | 0.00 | 87 | 1009.5 |
| 20260506041002 | 77 | 205 | 0.0 | 3.0 | 0.00 | 0.00 | 0.00 | 87 | 1009.5 |
| 20260506040507 | 77 | 107 | 0.0 | 6.0 | 0.00 | 0.00 | 0.00 | 87 | 1009.6 |
| 20260506040020 | 77 | 207 | 1.0 | 6.0 | 0.00 | 0.00 | 0.00 | 87 | 1009.5 |
| 20260506035503 | 77 | 238 | 0.0 | 2.0 | 0.00 | 0.00 | 0.00 | 87 | 1009.3 |
| 20260506035007 | 77 | 241 | 0.0 | 2.0 | 0.00 | 0.00 | 0.00 | 87 | 1009.2 |
| 20260506034510 | 77 | 252 | 0.0 | 2.0 | 0.00 | 0.00 | 0.00 | 87 | 1009.2 |
| 20260506034002 | 77 | 110 | 0.0 | 1.0 | 0.00 | 0.00 | 0.00 | 87 | 1009.2 |
| 20260506033505 | 77 | 115 | 0.0 | 1.0 | 0.00 | 0.00 | 0.00 | 87 | 1009.2 |
| 20260506033007 | 77 | 192 | 0.0 | 1.0 | 0.00 | 0.00 | 0.00 | 86 | 1009.2 |
| 20260506032507 | 77 | 229 | 0.0 | 1.0 | 0.00 | 0.00 | 0.00 | 86 | 1009.1 |
| 20260506032006 | 77 | 288 | 0.0 | 1.0 | 0.00 | 0.00 | 0.00 | 86 | 1009.0 |
| 20260506031504 | 77 | 288 | 0.0 | 3.0 | 0.00 | 0.00 | 0.00 | 86 | 1009.0 |
| 20260506031004 | 77 | 288 | 0.0 | 3.0 | 0.00 | 0.00 | 0.00 | 86 | 1009.0 |
| 20260506030505 | 77 | 176 | 0.0 | 3.0 | 0.00 | 0.00 | 0.00 | 86 | 1009.0 |
| 20260506030004 | 77 | 198 | 0.0 | 6.0 | 0.00 | 0.00 | 0.00 | 85 | 1008.9 |
| 20260506025506 | 77 | 208 | 0.0 | 6.0 | 0.00 | 0.00 | 0.00 | 85 | 1008.9 |
| 20260506025003 | 77 | 176 | 0.0 | 6.0 | 0.00 | 0.00 | 0.00 | 85 | 1008.8 |
| 20260506024525 | 77 | 247 | 0.0 | 6.0 | 0.00 | 0.00 | 0.00 | 85 | 1008.7 |
| 20260506024006 | 77 | 254 | 0.0 | 3.0 | 0.00 | 0.00 | 0.00 | 85 | 1008.7 |
| 20260506023502 | 77 | 255 | 0.0 | 3.0 | 0.00 | 0.00 | 0.00 | 85 | 1008.6 |
| 20260506023026 | 77 | 262 | 0.0 | 4.0 | 0.00 | 0.00 | 0.00 | 85 | 1008.4 |
| 20260506022505 | 77 | 311 | 0.0 | 4.0 | 0.00 | 0.00 | 0.00 | 85 | 1008.4 |
| 20260506022012 | 77 | 136 | 0.0 | 3.0 | 0.00 | 0.00 | 0.00 | 85 | 1008.3 |
| 20260506021529 | 77 | 219 | 0.0 | 3.0 | 0.00 | 0.00 | 0.00 | 85 | 1008.3 |
| 20260506021002 | 77 | 192 | 0.0 | 1.0 | 0.00 | 0.00 | 0.00 | 85 | 1008.1 |
| 20260506020507 | 77 | 245 | 0.0 | 1.0 | 0.00 | 0.00 | 0.00 | 85 | 1008.1 |
| 20260506020010 | 77 | 132 | 0.0 | 0.0 | 0.00 | 0.00 | 0.00 | 85 | 1008.0 |
| 20260506015503 | 77 | 163 | 0.0 | 1.0 | 0.00 | 0.00 | 0.00 | 85 | 1008.0 |
| 20260506015007 | 77 | 230 | 0.0 | 1.0 | 0.00 | 0.00 | 0.00 | 84 | 1007.9 |
| 20260506014508 | 77 | 230 | 0.0 | 0.0 | 0.00 | 0.00 | 0.00 | 84 | 1007.8 |
| 20260506014007 | 78 | 249 | 0.0 | 4.0 | 0.00 | 0.00 | 0.00 | 84 | 1007.8 |
| 20260506013506 | 78 | 248 | 0.0 | 4.0 | 0.00 | 0.00 | 0.00 | 84 | 1007.7 |
| 20260506013007 | 78 | 250 | 0.0 | 4.0 | 0.00 | 0.00 | 0.00 | 84 | 1007.6 |
| 20260506012506 | 78 | 257 | 0.0 | 3.0 | 0.00 | 0.00 | 0.00 | 84 | 1007.5 |
| 20260506012004 | 78 | 224 | 0.0 | 3.0 | 0.00 | 0.00 | 0.00 | 83 | 1007.5 |
| 20260506011507 | 78 | 221 | 0.0 | 2.0 | 0.00 | 0.00 | 0.00 | 83 | 1007.4 |
| 20260506011008 | 78 | 214 | 0.0 | 1.0 | 0.00 | 0.00 | 0.00 | 83 | 1007.3 |
| 20260506010505 | 79 | 214 | 0.0 | 4.0 | 0.00 | 0.00 | 0.00 | 82 | 1007.3 |
| 20260506010041 | 79 | 221 | 0.0 | 7.0 | 0.00 | 0.00 | 0.00 | 82 | 1007.3 |
| 20260506005506 | 79 | 174 | 0.0 | 7.0 | 0.00 | 0.00 | 0.00 | 82 | 1007.1 |
| 20260506005003 | 79 | 169 | 0.0 | 5.0 | 0.00 | 0.00 | 0.00 | 81 | 1006.9 |
| 20260506004525 | 79 | 106 | 0.0 | 4.0 | 0.00 | 0.00 | 0.00 | 81 | 1007.0 |
| 20260506004004 | 79 | 121 | 0.0 | 4.0 | 0.00 | 0.00 | 0.00 | 81 | 1007.0 |
| 20260506003509 | 79 | 244 | 0.0 | 3.0 | 0.00 | 0.00 | 0.00 | 81 | 1007.1 |
| 20260506003020 | 79 | 93 | 0.0 | 3.0 | 0.00 | 0.00 | 0.00 | 81 | 1007.0 |
| 20260506002507 | 80 | 101 | 0.0 | 2.0 | 0.00 | 0.00 | 0.00 | 81 | 1007.1 |
| 20260506002009 | 80 | 128 | 0.0 | 1.0 | 0.00 | 0.00 | 0.00 | 81 | 1007.1 |
| 20260506001515 | 80 | 178 | 0.0 | 3.0 | 0.00 | 0.00 | 0.00 | 81 | 1007.0 |
| 20260506001003 | 80 | 195 | 0.0 | 3.0 | 0.00 | 0.00 | 0.00 | 81 | 1007.0 |
| 20260506000507 | 80 | 263 | 0.0 | 2.0 | 0.00 | 0.00 | 0.00 | 80 | 1007.3 |
| 20260506000015 | 81 | 291 | 0.0 | 2.0 | 0.00 | 0.00 | 0.00 | 80 | 1007.2 |
| 20260505235509 | 81 | 98 | 0.0 | 2.0 | 0.00 | 0.00 | 0.00 | 80 | 1006.9 |
| 20260505235007 | 81 | 117 | 1.0 | 2.0 | 0.00 | 0.00 | 0.00 | 79 | 1006.8 |
| 20260505234525 | 81 | 156 | 0.0 | 1.0 | 0.00 | 0.00 | 0.00 | 79 | 1007.0 |
| 20260505234007 | 82 | 223 | 0.0 | 1.0 | 0.00 | 0.00 | 0.00 | 79 | 1007.0 |
| 20260505233503 | 82 | 268 | 0.0 | 3.0 | 0.00 | 0.00 | 0.00 | 78 | 1006.9 |
| 20260505233010 | 82 | 269 | 0.0 | 5.0 | 0.00 | 0.00 | 0.00 | 78 | 1006.8 |
| 20260505232510 | 82 | 122 | 0.0 | 5.0 | 0.00 | 0.00 | 0.00 | 78 | 1006.7 |
| 20260505232007 | 82 | 200 | 1.0 | 9.0 | 0.00 | 0.00 | 0.00 | 78 | 1006.8 |
| 20260505231531 | 82 | 98 | 1.0 | 9.0 | 0.00 | 0.00 | 0.00 | 77 | 1006.7 |
| 20260505231006 | 82 | 199 | 0.0 | 5.0 | 0.00 | 0.00 | 0.00 | 78 | 1006.7 |
| 20260505230504 | 82 | 115 | 0.0 | 5.0 | 0.00 | 0.00 | 0.00 | 77 | 1006.9 |
| 20260505230025 | 82 | 26 | 0.0 | 5.0 | 0.00 | 0.00 | 0.00 | 77 | 1007.0 |
| 20260505225508 | 82 | 274 | 1.0 | 6.0 | 0.00 | 0.00 | 0.00 | 77 | 1006.9 |
| 20260505225006 | 82 | 190 | 1.0 | 6.0 | 0.00 | 0.00 | 0.00 | 76 | 1007.0 |
| 20260505224522 | 82 | 240 | 1.0 | 5.0 | 0.00 | 0.00 | 0.00 | 77 | 1006.9 |
| 20260505224006 | 83 | 107 | 0.0 | 5.0 | 0.00 | 0.00 | 0.00 | 79 | 1006.9 |
| 20260505223519 | 82 | 279 | 0.0 | 5.0 | 0.00 | 0.00 | 0.00 | 78 | 1006.8 |
| 20260505223020 | 82 | 205 | 1.0 | 5.0 | 0.00 | 0.00 | 0.00 | 77 | 1006.7 |
| 20260505222509 | 82 | 262 | 2.0 | 7.0 | 0.00 | 0.00 | 0.00 | 76 | 1006.8 |
| 20260505222008 | 83 | 103 | 1.0 | 7.0 | 0.00 | 0.00 | 0.00 | 76 | 1007.0 |
| 20260505221517 | 83 | 107 | 0.0 | 6.0 | 0.00 | 0.00 | 0.00 | 77 | 1006.9 |
| 20260505221016 | 83 | 98 | 2.0 | 6.0 | 0.00 | 0.00 | 0.00 | 76 | 1006.9 |
| 20260505220508 | 83 | 154 | 0.0 | 7.0 | 0.00 | 0.00 | 0.00 | 77 | 1007.0 |
| 20260505220015 | 83 | 168 | 1.0 | 7.0 | 0.00 | 0.00 | 0.00 | 76 | 1007.1 |
| 20260505215508 | 83 | 211 | 1.0 | 6.0 | 0.00 | 0.00 | 0.00 | 75 | 1007.0 |
| 20260505215008 | 83 | 233 | 0.0 | 4.0 | 0.00 | 0.00 | 0.00 | 76 | 1007.2 |
| 20260505214512 | 83 | 100 | 0.0 | 5.0 | 0.00 | 0.00 | 0.00 | 77 | 1007.3 |
| 20260505214009 | 83 | 110 | 1.0 | 5.0 | 0.00 | 0.00 | 0.00 | 76 | 1007.4 |
| 20260505213503 | 83 | 195 | 1.0 | 4.0 | 0.00 | 0.00 | 0.00 | 76 | 1007.5 |
| 20260505213024 | 83 | 220 | 0.0 | 7.0 | 0.00 | 0.00 | 0.00 | 76 | 1007.6 |
| 20260505212515 | 83 | 228 | 2.0 | 7.0 | 0.00 | 0.00 | 0.00 | 75 | 1007.6 |
| 20260505212009 | 83 | 82 | 1.0 | 5.0 | 0.00 | 0.00 | 0.00 | 77 | 1007.7 |
| 20260505211526 | 83 | 285 | 1.0 | 6.0 | 0.00 | 0.00 | 0.00 | 76 | 1007.8 |
| 20260505211006 | 83 | 276 | 1.0 | 6.0 | 0.00 | 0.00 | 0.00 | 75 | 1007.8 |
| 20260505210503 | 84 | 206 | 0.0 | 5.0 | 0.00 | 0.00 | 0.00 | 76 | 1007.8 |
| 20260505210024 | 84 | 250 | 0.0 | 7.0 | 0.00 | 0.00 | 0.00 | 75 | 1007.9 |
| 20260505205504 | 85 | 39 | 1.0 | 9.0 | 0.00 | 0.00 | 0.00 | 73 | 1008.0 |
| 20260505205012 | 85 | 196 | 2.0 | 9.0 | 0.00 | 0.00 | 0.00 | 73 | 1008.0 |
| 20260505204523 | 85 | 219 | 2.0 | 7.0 | 0.00 | 0.00 | 0.00 | 73 | 1008.0 |
| 20260505204010 | 85 | 209 | 2.0 | 7.0 | 0.00 | 0.00 | 0.00 | 73 | 1008.0 |
| 20260505203512 | 85 | 126 | 1.0 | 5.0 | 0.00 | 0.00 | 0.00 | 73 | 1008.1 |
| 20260505203033 | 85 | 259 | 1.0 | 6.0 | 0.00 | 0.00 | 0.00 | 77 | 1008.2 |